Home > Weather > Fort Nelson > Past weeks

Flag for Canada Past Weather in Fort Nelson, British Columbia, Canada — Yesterday and Last 2 Weeks

Now
36 °F

Rain. Fog.


Feels Like: 26 °F
Forecast: 37 / 45 °F
Wind: 15 mph from Northwest

Location: Fort Nelson

Current Time: May 28, 2016 at 1:11:13 PM

Latest Report: May 28, 2016 at 12:00 PM


Visibility: 4 mi

Pressure: 30.03 "Hg

Humidity: 93%

Dew Point: 34 °F

Location of Fort NelsonLocation

Past Weather in Fort Nelson — Graph

°F

Fort Nelson Temperature Yesterday

Maximum temperature yesterday: 50 °F (at 12:00 AM)
Minimum temperature yesterday: 45 °F (at 3:00 AM)
Average temperature yesterday: 46 °F

High & Low Weather Summary for the Past Weeks

 TemperatureHumidityPressure
High79 °F (May 23, 3:00 PM)100% (May 19, 4:00 AM)30.45 "Hg (May 19, 4:00 AM)
Low30 °F (May 21, 5:00 AM)14% (May 15, 3:00 PM)29.59 "Hg (May 23, 6:00 PM)
Average53 °F62%29.98 "Hg
* Reported May 13 11:00 AM — May 28 11:00 AM, Fort Nelson, Weather by CustomWeather, © 2016

Note: Actual official high and low records may vary slightly from our data, if they occured in-between our weather recording intervals... More about our weather records

Advertising

Fort Nelson Weather History for the Previous 24 Hours

Scroll right to see more
 ConditionsComfort  
Time TempWeatherWind HumidityBarometerVisibility
11:00 AM
Sat, May 28
37 °FLight rain. Fog.15 mph93%30.03 "Hg5 mi
10:00 AM37 °FLight rain. Fog.16 mph100%30.03 "Hg5 mi
9:00 AM41 °FLight rain. More clouds than sun.15 mph93%30.04 "Hg5 mi
8:00 AM41 °FLight rain. Low clouds.15 mph93%30.04 "Hg5 mi
7:00 AM41 °FLight rain. Low clouds.13 mph93%30.04 "Hg5 mi
6:00 AM43 °FLight rain. Low clouds.13 mph93%30.05 "Hg5 mi
5:00 AM43 °FLight rain. Mostly cloudy.12 mph93%30.04 "Hg5 mi
4:00 AM43 °FLight rain. Low clouds.13 mph93%30.04 "Hg5 mi
3:00 AM43 °FLight rain. Overcast.13 mph100%30.04 "Hg15 mi
2:00 AM45 °FLight rain. Overcast.14 mph93%30.05 "Hg15 mi
1:00 AM45 °FLight rain. Overcast.12 mph93%30.06 "Hg5 mi
12:00 AM45 °FLight rain. Overcast.8 mph93%30.07 "Hg3 mi
11:00 PM
Fri, May 27
45 °FLight rain. Overcast.8 mph93%30.08 "Hg3 mi
10:00 PM45 °FLight rain. Mostly cloudy.10 mph93%30.09 "Hg3 mi
9:00 PM45 °FLight rain. More clouds than sun.12 mph93%30.08 "Hg5 mi
8:00 PM45 °FLight rain. More clouds than sun.10 mph93%30.08 "Hg7 mi
7:00 PM45 °FLight rain. Overcast.9 mph93%30.08 "Hg10 mi
6:00 PM45 °FLight rain. Overcast.10 mph93%30.09 "Hg7 mi
5:00 PM45 °FLight rain. Overcast.12 mph93%30.09 "Hg5 mi
4:00 PM45 °FLight rain. Overcast.12 mph93%30.08 "Hg5 mi
3:00 PM46 °FLight rain. Overcast.13 mph82%30.06 "Hg9 mi
2:00 PM46 °FLight rain. Overcast.12 mph87%30.06 "Hg9 mi
1:52 PM46 °FDrizzle. Fog.13 mph87%30.05 "Hg10 mi
1:00 PM46 °FLight rain. Mostly cloudy.14 mph82%30.05 "Hg15 mi
Weather by CustomWeather, © 2016

See weather overviewHow to use our weather pages